Flag for Germany Weather past 2 weeks in Bruchsal, Baden-Württemberg, Germany

Now
52 °F

Passing clouds.


Feels Like: 48 °F
Forecast: 39 / 56 °F
Wind: 12 mph from West

Location: Baden Wurttemberg - Neuostheim

Current Time: Mar 27, 2015 at 1:19:58 PM

Latest Report: Mar 27, 2015 at 12:50 PM


Visibility: N/A

Pressure: 30.07 "Hg

Humidity: 44%

Dew point: 30 °F

Location of BruchsalLocation

Historic Weather in Bruchsal — Graph

°F

Bruchsal temperature yesterday

Maximum temperature yesterday: 50 °F (at 1:20 PM)
Minimum temperature yesterday: 43 °F (at 7:50 PM)
Average temperature yesterday: 47 °F

Past Weeks' High & Low Weather Summary

 TemperatureHumidityPressure
High64 °F (Mar 17, 3:50 PM)100% (Mar 21, 9:20 AM)30.45 "Hg (Mar 21, 9:20 AM)
Low30 °F (Mar 24, 5:20 AM)34% (Mar 20, 3:50 PM)29.59 "Hg (Mar 25, 2:50 PM)
Average48 °F63%30.09 "Hg
* Reported Mar 12 11:20 AM — Mar 27 11:50 AM, Bruchsal, Weather by CustomWeather, © 2015

Note: Actual official high and low records may vary slightly from our data, if they occured in-between our weather recording intervals... More about our weather records

Advertising

Bruchsal weather history for previous 24 hours

 ConditionsComfort  
Time TempWeatherWind HumidityBarometerVisibility
11:50 AM
Fri, Mar 27
50 °FScattered clouds.13 mph50%30.07 "HgN/A
11:20 AM50 °FPassing clouds.10 mph47%30.07 "HgN/A
10:50 AM50 °FPassing clouds.12 mph50%30.07 "HgN/A
10:20 AM48 °FBroken clouds.14 mph58%30.07 "HgN/A
9:50 AM46 °FPartly sunny.13 mph66%30.07 "HgN/A
9:20 AM48 °FScattered clouds.14 mph62%30.07 "HgN/A
8:50 AM46 °FPassing clouds.9 mph71%30.04 "HgN/A
8:20 AM46 °FPassing clouds.10 mph66%30.04 "HgN/A
7:50 AM45 °FSunny.9 mph76%30.01 "Hg10 mi
7:20 AM43 °FPassing clouds.5 mph81%30.01 "HgN/A
6:50 AM41 °FSunny.3 mph87%29.98 "Hg10 mi
6:20 AM43 °FSunny.7 mph81%29.98 "Hg10 mi
5:50 AM43 °FPassing clouds.6 mph87%29.95 "HgN/A
5:20 AM43 °FPassing clouds.2 mph87%29.95 "HgN/A
8:50 PM
Thu, Mar 26
43 °FLight rain. Passing clouds.5 mph87%29.86 "HgN/A
8:20 PM43 °FLight rain. Passing clouds.2 mph87%29.86 "Hg6 mi
7:50 PM43 °FLight rain. Passing clouds.10 mph87%29.83 "Hg6 mi
7:20 PM45 °FLight rain. Partly cloudy.13 mph76%29.83 "Hg6 mi
6:50 PM48 °FLight rain. Passing clouds.8 mph62%29.80 "HgN/A
6:20 PM50 °FLight rain. Partly sunny.8 mph54%29.80 "HgN/A
5:50 PM50 °FPassing clouds.7 mph54%29.77 "HgN/A
5:20 PM50 °FPassing clouds.9 mph54%29.77 "HgN/A
4:50 PM50 °FPassing clouds.10 mph54%29.77 "HgN/A
4:20 PM50 °FPassing clouds.10 mph54%29.77 "HgN/A
3:50 PM48 °FPassing clouds.12 mph58%29.77 "HgN/A
3:20 PM50 °FPassing clouds.8 mph58%29.80 "HgN/A
2:50 PM50 °FPassing clouds.9 mph58%29.80 "HgN/A
2:20 PM50 °FPartly sunny.8 mph54%29.80 "HgN/A
1:50 PM50 °FBroken clouds.8 mph54%29.80 "HgN/A
1:20 PM50 °FBroken clouds.7 mph62%29.80 "HgN/A
Weather by CustomWeather, © 2015

See weather overviewHow to use our weather pages